This demonstration page uses our WeatherBlox Daily Observations layout. Learn more.

Left ArrowRight Arrow

39.92423, -83.80882

Hourly Observations for January 14, 2015

Temp ( °F °C ) Dew Point ( °F °C ) Humidity (%) Winds ( mph kmh ) Pressure ( in mb ) Visibility ( mi km ) Precip ( " mm )
12:56 am 00:56 Clear 9 -12.7 5 -15 83 83 SSE 3 6 30.43 1031 8 13 0.00 0.00
1:56 am 01:56 Clear 7 -13.8 4 -15.5 87 87 SSW 5 7 30.42 1030 8 13 0.00 0.00
2:56 am 02:56 Clear 6 -14.4 4 -15.5 91 91 S 3 6 30.41 1030 7 11 0.00 0.00
3:56 am 03:56 Clear 6 -14.4 3 -16.1 87 87 S 3 6 30.40 1030 7 11 0.00 0.00
4:56 am 04:56 Clear 5 -15 2 -16.6 88 88 Calm 30.38 1029 8 13 0.00 0.00
5:56 am 05:56 Clear 4 -15.5 1 -17.2 87 87 Calm 30.38 1029 7 11 0.00 0.00
6:39 am 06:39 Mostly Cloudy 5 -15 1 -17 85 85 Calm 30.45 1031 7 11 0.00 0.00
6:56 am 06:56 Cloudy 7 -13.8 3 -16.1 83 83 Calm 30.40 1029 7 11 0.00 0.00
7:56 am 07:56 Cloudy with Mist and Fog 9 -12.7 6 -14.4 87 87 Calm 30.40 1029 6 10 0.00 0.00
8:56 am 08:56 Cloudy with Light Snow 10 -12.2 7 -13.8 88 88 Calm 30.40 1029 4 6 0.00 0.03
9:56 am 09:56 Cloudy with Light Snow 14 -10 10 -12.2 84 84 Calm 30.40 1029 4 6 0.00 0.03
10:56 am 10:56 Cloudy with Light Snow 17 -8.3 13 -10.5 84 84 SSW 6 9 30.40 1029 5 8 0.00 0.03
11:40 am 11:40 Cloudy with Light Snow 19 -7 16 -9 86 86 SW 8 13 30.39 1029 4 6 0.00 0.03
11:56 am 11:56 Cloudy with Mist and Fog 19 -7.2 15 -9.4 84 84 SW 8 13 30.37 1029 5 8 0.00 0.03
12:56 pm 12:56 Cloudy with Mist and Fog 19 -7.2 15 -9.4 84 84 SSW 6 9 30.36 1028 5 8 0.00 0.03
1:25 pm 13:25 Cloudy with Haze 19 -7 14 -10 79 79 W 10 17 30.39 1029 6 10 0.00 0.00
1:56 pm 13:56 Cloudy with Light Snow 20 -6.6 15 -9.4 81 81 W 8 13 30.34 1027 6 10 0.00 0.03
2:56 pm 14:56 Cloudy 19 -7.2 13 -10.5 78 78 SW 7 11 30.33 1027 7 11 0.00 0.03
3:31 pm 15:31 Partly Cloudy 19 -7 12 -11 73 73 SSW 5 7 30.36 1028 8 13 0.00 0.00
3:56 pm 15:56 Mostly Sunny 20 -6.6 13 -10.5 74 74 S 3 6 30.34 1027 7 11 0.00 0.00
4:56 pm 16:56 Sunny 20 -6.6 12 -11.1 71 71 Calm 30.34 1028 7 11 0.00 0.00
5:56 pm 17:56 Clear 19 -7.2 12 -11.1 74 74 Calm 30.35 1028 8 13 0.00 0.00
6:56 pm 18:56 Clear 16 -8.8 12 -11.1 84 84 Calm 30.34 1028 8 13 0.00 0.00
7:56 pm 19:56 Clear 14 -10 11 -11.6 88 88 Calm 30.35 1028 7 11 0.00 0.00
8:56 pm 20:56 Partly Cloudy 13 -10.5 10 -12.2 87 87 Calm 30.34 1027 7 11 0.00 0.00
9:56 pm 21:56 Partly Cloudy 15 -9.4 12 -11.1 88 88 S 3 6 30.33 1027 7 11 0.00 0.00
10:56 pm 22:56 Cloudy 15 -9.4 12 -11.1 88 88 Calm 30.32 1027 7 11 0.00 0.00
11:56 pm 23:56 Cloudy 17 -8.3 14 -10 88 88 S 3 6 30.30 1026 7 11 0.00 0.00

Powered by AerisWeather